When you browse on this site, cookies collect data to enhance your experience and personalize the content and advertising you see.
Visit our Privacy Policy to learn more. By continuing to use the site, you agree to this use of cookies and data.
  • In Slovakia
  • List of Countries
  • For 7 days
  • Water Temperature
  • Weather Map
  • Weather Widgets
  • user-avatar
    Login

    Hourly Weather Wavre

    Today, 10 December, Tuesday

    Time Temperature Precipitation Wind Pressure Humidity
    00:00 +3°C° 0 mm 3 mps 761 mmHg 88%
    01:00 +2°C° 0 mm 3 mps 762 mmHg 89%
    02:00 +2°C° 0 mm 3 mps 762 mmHg 89%
    03:00 +2°C° 0 mm 3 mps 762 mmHg 90%
    04:00 +2°C° 0 mm 3 mps 762 mmHg 90%
    05:00 +1°C° 0 mm 3 mps 763 mmHg 90%
    06:00 +1°C° 0 mm 3 mps 763 mmHg 91%
    07:00 0°C° 0 mm 4 mps 763 mmHg 88%
    08:00 0°C° 0 mm 4 mps 763 mmHg 84%
    09:00 +1°C° 0 mm 5 mps 763 mmHg 80%
    10:00 +2°C° 0 mm 6 mps 762 mmHg 76%
    11:00 +3°C° 0 mm 7 mps 762 mmHg 72%
    12:00 +2°C° 0 mm 8 mps 762 mmHg 66%
    13:00 +2°C° 0 mm 8 mps 760 mmHg 67%
    14:00 +2°C° 0 mm 8 mps 759 mmHg 69%
    15:00 +2°C° 0 mm 8 mps 758 mmHg 70%
    16:00 +2°C° 0 mm 8 mps 758 mmHg 69%
    17:00 +2°C° 0 mm 9 mps 757 mmHg 68%
    18:00 +2°C° 0 mm 9 mps 757 mmHg 67%
    19:00 +2°C° 0.1 mm 10 mps 756 mmHg 68%
    20:00 +2°C° 0.1 mm 10 mps 755 mmHg 70%
    21:00 +3°C° 0.1 mm 10 mps 754 mmHg 71%
    22:00 +3°C° 0 mm 10 mps 754 mmHg 71%
    23:00 +3°C° 0 mm 10 mps 753 mmHg 72%

    Tomorrow, 11 December, Wednesday

    Time Temperature Precipitation Wind Pressure Humidity
    00:00 +3°C° 0 mm 10 mps 753 mmHg 72%
    01:00 +3°C° 0.1 mm 9 mps 752 mmHg 76%
    02:00 +4°C° 0.1 mm 8 mps 752 mmHg 81%
    03:00 +4°C° 0.1 mm 7 mps 752 mmHg 85%
    04:00 +4°C° 0.2 mm 6 mps 752 mmHg 87%
    05:00 +5°C° 0.2 mm 5 mps 751 mmHg 88%
    06:00 +5°C° 0.2 mm 4 mps 751 mmHg 90%
    07:00 +5°C° 0.1 mm 4 mps 751 mmHg 89%
    08:00 +5°C° 0.1 mm 3 mps 751 mmHg 87%
    09:00 +5°C° 0.1 mm 3 mps 750 mmHg 86%
    10:00 +5°C° 0.1 mm 3 mps 750 mmHg 84%
    11:00 +5°C° 0.1 mm 3 mps 750 mmHg 82%
    12:00 +7°C° 0.1 mm 3 mps 749 mmHg 81%
    13:00 +5°C° 0 mm 3 mps 749 mmHg 82%
    14:00 +5°C° 0 mm 3 mps 748 mmHg 83%
    15:00 +5°C° 0 mm 3 mps 748 mmHg 84%
    16:00 +4°C° 0 mm 3 mps 748 mmHg 85%
    17:00 +4°C° 0 mm 4 mps 747 mmHg 86%
    18:00 +4°C° 0 mm 4 mps 747 mmHg 87%
    19:00 +3°C° 0 mm 4 mps 747 mmHg 86%
    20:00 +2°C° 0 mm 5 mps 746 mmHg 85%
    21:00 +2°C° 0 mm 5 mps 746 mmHg 84%
    22:00 +2°C° 0.1 mm 5 mps 746 mmHg 85%
    23:00 +3°C° 0.1 mm 4 mps 746 mmHg 87%

    Day after tomorrow, 12 December, Thursday

    Time Temperature Precipitation Wind Pressure Humidity
    00:00 +4°C° 0.1 mm 4 mps 746 mmHg 88%
    01:00 +3°C° 0.1 mm 4 mps 746 mmHg 88%
    02:00 +3°C° 0.1 mm 4 mps 746 mmHg 88%
    03:00 +1°C° 0.1 mm 4 mps 746 mmHg 87%
    04:00 +1°C° 0 mm 4 mps 746 mmHg 87%
    05:00 0°C° 0 mm 4 mps 746 mmHg 87%
    06:00 0°C° 0 mm 4 mps 746 mmHg 86%
    07:00 0°C° 0 mm 4 mps 747 mmHg 86%
    08:00 0°C° 0 mm 5 mps 747 mmHg 85%
    09:00 0°C° 0 mm 5 mps 747 mmHg 85%
    10:00 +1°C° 0 mm 5 mps 746 mmHg 82%
    11:00 +2°C° 0 mm 6 mps 746 mmHg 79%
    12:00 +3°C° 0 mm 6 mps 745 mmHg 76%
    13:00 +3°C° 0 mm 6 mps 744 mmHg 76%
    14:00 +2°C° 0 mm 7 mps 743 mmHg 77%
    15:00 +2°C° 0 mm 7 mps 742 mmHg 77%
    16:00 +1°C° 0 mm 8 mps 740 mmHg 77%
    17:00 +1°C° 0 mm 8 mps 738 mmHg 77%
    18:00 +1°C° 0 mm 9 mps 737 mmHg 77%
    19:00 +1°C° 0.5 mm 10 mps 734 mmHg 81%
    20:00 +1°C° 0.5 mm 11 mps 732 mmHg 84%
    21:00 0°C° 0.5 mm 12 mps 730 mmHg 88%
    22:00 +2°C° 1.7 mm 11 mps 728 mmHg 88%
    23:00 +3°C° 1.7 mm 11 mps 727 mmHg 88%

    13 December, Friday

    Time Temperature Precipitation Wind Pressure Humidity
    00:00 +6°C° 1.7 mm 10 mps 725 mmHg 88%
    01:00 +5°C° 0.7 mm 9 mps 724 mmHg 87%
    02:00 +5°C° 0.7 mm 8 mps 724 mmHg 86%
    03:00 +4°C° 0.7 mm 7 mps 723 mmHg 85%
    04:00 +4°C° 0.3 mm 7 mps 723 mmHg 84%
    05:00 +4°C° 0.3 mm 8 mps 724 mmHg 83%
    06:00 +2°C° 0.3 mm 8 mps 724 mmHg 81%
    07:00 +2°C° 0.1 mm 8 mps 725 mmHg 82%
    08:00 +2°C° 0.1 mm 8 mps 725 mmHg 83%
    09:00 +2°C° 0.1 mm 9 mps 726 mmHg 83%
    10:00 +2°C° 1 mm 9 mps 726 mmHg 86%
    11:00 +1°C° 1 mm 10 mps 727 mmHg 89%
    12:00 +1°C° 1 mm 11 mps 727 mmHg 92%
    13:00 +2°C° 0.9 mm 10 mps 728 mmHg 90%
    14:00 +2°C° 0.9 mm 10 mps 729 mmHg 88%
    15:00 +3°C° 0.9 mm 10 mps 730 mmHg 86%
    16:00 +3°C° 0.4 mm 9 mps 731 mmHg 86%
    17:00 +4°C° 0.4 mm 8 mps 732 mmHg 85%
    18:00 +4°C° 0.4 mm 8 mps 733 mmHg 84%
    19:00 +4°C° 0.1 mm 7 mps 733 mmHg 83%
    20:00 +4°C° 0.1 mm 7 mps 734 mmHg 81%
    21:00 +3°C° 0.1 mm 6 mps 735 mmHg 79%
    22:00 +3°C° 0.2 mm 7 mps 734 mmHg 82%
    23:00 +2°C° 0.2 mm 8 mps 734 mmHg 85%

    14 December, Saturday

    Time Temperature Precipitation Wind Pressure Humidity
    00:00 +2°C° 0.2 mm 8 mps 734 mmHg 87%
    01:00 +5°C° 0.5 mm 9 mps 733 mmHg 84%
    02:00 +6°C° 0.5 mm 10 mps 732 mmHg 80%
    03:00 +7°C° 0.5 mm 11 mps 731 mmHg 76%
    04:00 +6°C° 0 mm 11 mps 732 mmHg 75%
    05:00 +6°C° 0 mm 10 mps 733 mmHg 74%
    06:00 +5°C° 0 mm 10 mps 734 mmHg 73%
    07:00 +3°C° 0 mm 9 mps 735 mmHg 71%
    08:00 +4°C° 0 mm 8 mps 736 mmHg 70%
    09:00 +4°C° 0 mm 7 mps 737 mmHg 68%
    10:00 +4°C° 0.6 mm 7 mps 737 mmHg 75%
    11:00 +4°C° 0.6 mm 7 mps 737 mmHg 81%
    12:00 +3°C° 0.6 mm 6 mps 737 mmHg 88%
    13:00 +4°C° 0.2 mm 7 mps 738 mmHg 82%
    14:00 +4°C° 0.2 mm 8 mps 739 mmHg 75%
    15:00 +5°C° 0.2 mm 9 mps 739 mmHg 69%
    16:00 +4°C° 0 mm 8 mps 740 mmHg 71%
    17:00 +3°C° 0 mm 7 mps 741 mmHg 72%
    18:00 +3°C° 0 mm 6 mps 742 mmHg 74%
    19:00 +3°C° 0 mm 6 mps 743 mmHg 77%
    20:00 +2°C° 0 mm 7 mps 743 mmHg 80%
    21:00 +2°C° 0 mm 7 mps 743 mmHg 83%
    22:00 +2°C° 0 mm 7 mps 743 mmHg 84%
    23:00 +2°C° 0 mm 6 mps 743 mmHg 84%

    15 December, Sunday

    Time Temperature Precipitation Wind Pressure Humidity
    00:00 +2°C° 0 mm 6 mps 743 mmHg 85%
    01:00 +3°C° 0.1 mm 7 mps 741 mmHg 86%
    02:00 +2°C° 0.1 mm 8 mps 740 mmHg 86%
    03:00 +3°C° 0.1 mm 9 mps 739 mmHg 87%
    04:00 +5°C° 0.6 mm 9 mps 738 mmHg 86%
    05:00 +5°C° 0.6 mm 10 mps 737 mmHg 85%
    06:00 +6°C° 0.6 mm 11 mps 737 mmHg 84%
    07:00 +5°C° 0.2 mm 12 mps 738 mmHg 77%
    08:00 +4°C° 0.2 mm 12 mps 740 mmHg 71%
    09:00 +3°C° 0.2 mm 12 mps 742 mmHg 65%
    10:00 +4°C° 0 mm 11 mps 743 mmHg 65%
    11:00 +4°C° 0 mm 11 mps 744 mmHg 66%
    12:00 +5°C° 0 mm 10 mps 745 mmHg 67%
    13:00 +5°C° 0 mm 9 mps 745 mmHg 67%
    14:00 +5°C° 0 mm 9 mps 746 mmHg 68%
    15:00 +5°C° 0 mm 8 mps 746 mmHg 68%
    16:00 +5°C° 0 mm 8 mps 747 mmHg 69%
    17:00 +4°C° 0 mm 8 mps 748 mmHg 70%
    18:00 +4°C° 0 mm 8 mps 749 mmHg 72%
    19:00 +4°C° 0 mm 8 mps 749 mmHg 73%
    20:00 +4°C° 0 mm 8 mps 749 mmHg 74%
    21:00 +4°C° 0 mm 8 mps 750 mmHg 75%
    22:00 +4°C° 0 mm 7 mps 750 mmHg 76%
    23:00 +4°C° 0 mm 7 mps 750 mmHg 77%
    Show more